Location: Newark
(57.7279°N, 5.6916°W)
Time: 21:14:43
(UTC+00:00)

N. Korean satellite - Pass Details

Date: 15 December 2019
Orbit: 454 x 508 km, 97.2° (Epoch: 19 January)

Event Time Altitude Azimuth Distance (km) Brightness Sun altitude
Rises 07:30:35 0° 8° (N) 2,555 10.0 -10.4°
Reaches altitude 10° 07:32:52 10° 357° (N) 1,661 9.0 -10.1°
Maximum altitude 07:35:55 27° 298° (WNW) 932 7.4 -9.8°
Drops below altitude 10° 07:38:55 10° 238° (WSW) 1,625 8.9 -9.4°
Sets 07:41:07 0° 226° (SW) 2,488 10.0 -9.2°
